(519204) = 2010 RU46 = 2014 WF242

Discovered at La Sagra on 2010-09-03 by OAM.

Orbit

Orbit type: Main Belt

Note: WebGL enabled browser required.

epoch2024-03-31.0
epoch JD2460400.5
perihelion date2022-10-20.15283
perihelion JD2459872.65283
argument of perihelion (°)86.74028
ascending node (°)240.86606
inclination (°)13.46020
eccentricity0.1393657
perihelion distance (AU)2.2034155
Tisserand w.r.t. Jupiter3.4
ΔV w.r.t. Earth (km/sec)10.2
semimajor axis (AU)2.5602225
mean anomaly (°)126.99758
mean daily motion (°/day)0.24059540
aphelion distance (AU)2.917
period (years)4.1
P-vector [x]0.82043305
P-vector [y]-0.57171687
P-vector [z]0.00542491
Q-vector [x]0.53436909
Q-vector [y]0.77014288
Q-vector [z]0.34832401
absolute magnitude16.59
phase slope0.15
uncertainty0
referenceMPEC 2024-C163
observations used172
oppositions9
arc length (days)6352
first opposition used2006
last opposition used2024
residual rms (arc-secs)0.73
perturbers coarse indicatorM-v
perturbers precise indicator003Ek
first observation date used2006-09-22.0
last observation date used2024-02-12.0
computer nameMPCLINUX
Minimum Orbit Intersection Distances (in AU)
for orbit epoch: 2460200.5, reference: E2024-CG3
Mercury1.81817
Venus1.52161
Earth1.24264
Mars0.91273
Jupiter2.44217
Saturn6.31572
Uranus15.6442
Neptune27.329

Observations

175 total observations over interval: 2006 09 22.34063 – 2024 02 12.333042
These data are available for download (format description).

Date (UT) J2000 RA J2000 Dec Magn Location Ref
2006 09 22.34063 00 07 29.04 +22 14 26.9 19.1 R 699 – Lowell Observatory-LONEOS MPS 994260
2006 09 22.35892 00 07 28.10 +22 14 18.6   699 – Lowell Observatory-LONEOS MPS 994260
2006 09 22.37720 00 07 27.22 +22 14 10.0   699 – Lowell Observatory-LONEOS MPS 994260
2006 09 22.39547 00 07 26.36 +22 14 00.0   699 – Lowell Observatory-LONEOS MPS 994260
2010 09 03.96936 23 01 38.99 +18 40 52.3 19.1 V J75 – OAM Observatory, La Sagra MPS 347260
2010 09 03.98227 23 01 38.30 +18 40 48.6 19.0 V J75 – OAM Observatory, La Sagra MPS 347260
2010 09 03.99516 23 01 37.74 +18 40 44.1 19.8 V J75 – OAM Observatory, La Sagra MPS 347260
2010 09 08.90203 22 57 44.53 +18 11 17.9 19.1 V J75 – OAM Observatory, La Sagra MPS 347260
2010 09 08.91516 22 57 43.88 +18 11 12.7 19.6 V J75 – OAM Observatory, La Sagra MPS 347260
2010 09 08.92810 22 57 43.22 +18 11 07.3 19.4 V J75 – OAM Observatory, La Sagra MPS 347260
2010 09 17.22150 22 51 22.03 +17 04 57.6 19.9 V 703 – Catalina Sky Survey MPS 349604
2010 09 17.22819 22 51 21.70 +17 04 56.0 19.4 V 703 – Catalina Sky Survey MPS 349604
2010 09 17.23490 22 51 21.42 +17 04 51.5 19.4 V 703 – Catalina Sky Survey MPS 349604
2010 09 17.24163 22 51 21.09 +17 04 46.7 19.5 V 703 – Catalina Sky Survey MPS 349604
2010 10 13.20502 22 39 30.34 +12 29 15.2 19.4 V 703 – Catalina Sky Survey MPS 351478
2010 10 13.21184 22 39 30.24 +12 29 11.2 19.5 V 703 – Catalina Sky Survey MPS 351478
2010 10 13.21876 22 39 30.09 +12 29 05.7 19.0 V 703 – Catalina Sky Survey MPS 351478
2010 10 13.22564 22 39 30.09 +12 29 02.9 19.2 V 703 – Catalina Sky Survey MPS 351478
2014 05 06.59411 21 31 17.038 -02 19 39.91 21.6 w F51 – Pan-STARRS 1, Haleakala MPS 553191
2014 05 06.60368 21 31 17.752 -02 19 32.44 21.6 w F51 – Pan-STARRS 1, Haleakala MPS 553191
2014 05 06.60846 21 31 18.119 -02 19 28.51 21.7 w F51 – Pan-STARRS 1, Haleakala MPS 553191
2014 08 29.35133 21 48 14.99 +12 32 58.7 19.5 V G96 – Mt. Lemmon Survey MPS 553191
2014 08 29.35590 21 48 14.68 +12 32 57.3 18.8 V G96 – Mt. Lemmon Survey MPS 553191
2014 08 29.36049 21 48 14.53 +12 32 56.2 18.9 V G96 – Mt. Lemmon Survey MPS 553191
2014 09 01.19743 21 46 04.01 +12 15 09.6 18.9 V 703 – Catalina Sky Survey MPS 553191
2014 09 01.20501 21 46 03.62 +12 15 06.4 18.6 V 703 – Catalina Sky Survey MPS 553191
2014 09 01.21259 21 46 03.28 +12 15 03.5 19.2 V 703 – Catalina Sky Survey MPS 553191
2014 09 01.22016 21 46 02.91 +12 15 00.4 19.1 V 703 – Catalina Sky Survey MPS 553191
2014 10 09.34470 21 34 43.457 +06 43 21.30 20.2 i F51 – Pan-STARRS 1, Haleakala MPS 553191
2014 10 09.35857 21 34 43.629 +06 43 14.29 20.2 i F51 – Pan-STARRS 1, Haleakala MPS 553191
2014 10 09.37253 21 34 43.820 +06 43 07.23 20.1 i F51 – Pan-STARRS 1, Haleakala MPS 553192
2014 11 21.21238 22 09 05.730 +03 14 26.39 20.7 w F51 – Pan-STARRS 1, Haleakala MPS 548165
2014 11 21.22422 22 09 06.588 +03 14 25.65 20.6 w F51 – Pan-STARRS 1, Haleakala MPS 548165
2014 11 21.23603 22 09 07.444 +03 14 24.72 20.9 w F51 – Pan-STARRS 1, Haleakala MPS 548165
2014 11 21.24787 22 09 08.305 +03 14 24.11 20.7 w F51 – Pan-STARRS 1, Haleakala MPS 548165
2014 11 23.20695 22 11 35.595 +03 12 41.34 21.2 w F51 – Pan-STARRS 1, Haleakala MPS 548165
2014 11 23.21862 22 11 36.463 +03 12 40.83 21.4 w F51 – Pan-STARRS 1, Haleakala MPS 548165
2014 11 23.24187 22 11 38.183 +03 12 39.88 21.2 w F51 – Pan-STARRS 1, Haleakala MPS 548165
2017 03 05.47372 12 26 54.569 -20 53 43.44 20.9 w F51 – Pan-STARRS 1, Haleakala MPS 775917
2017 03 05.48507 12 26 54.095 -20 53 41.78 21.0 w F51 – Pan-STARRS 1, Haleakala MPS 775917
2017 03 05.49642 12 26 53.633 -20 53 40.07 20.8 w F51 – Pan-STARRS 1, Haleakala MPS 775917
2017 03 05.50780 12 26 53.143 -20 53 38.17 21.0 w F51 – Pan-STARRS 1, Haleakala MPS 775917
2017 03 25.30366 12 11 15.70 -19 16 22.6 20.7 V G96 – Mt. Lemmon Survey MPS 781950
2017 03 25.30790 12 11 15.47 -19 16 20.5 20.6 V G96 – Mt. Lemmon Survey MPS 781950
2017 03 25.31214 12 11 15.24 -19 16 18.7 20.9 V G96 – Mt. Lemmon Survey MPS 781950
2017 03 25.46773 12 11 07.166 -19 15 11.49 20.7 w F51 – Pan-STARRS 1, Haleakala MPS 781950
2017 03 25.47818 12 11 06.607 -19 15 07.00 20.8 w F51 – Pan-STARRS 1, Haleakala MPS 781950
2017 03 25.48863 12 11 06.056 -19 15 02.47 20.9 w F51 – Pan-STARRS 1, Haleakala MPS 781950
2017 03 25.49909 12 11 05.495 -19 14 57.98 20.7 w F51 – Pan-STARRS 1, Haleakala MPS 781950
2017 04 23.26936 11 50 06.22 -14 59 25.3 21.2 V 691 – Steward Observatory, Kitt Peak-Spacewatch MPS 792914
2017 04 23.28073 11 50 05.88 -14 59 19.0 20.8 V 691 – Steward Observatory, Kitt Peak-Spacewatch MPS 792914
2017 04 23.29203 11 50 05.52 -14 59 12.3 20.9 V 691 – Steward Observatory, Kitt Peak-Spacewatch MPS 792915
2017 04 25.33359 11 49 08.029 -14 40 04.51 21.1 w F51 – Pan-STARRS 1, Haleakala MPS 792915
2017 04 25.34406 11 49 07.711 -14 39 58.66 21.1 w F51 – Pan-STARRS 1, Haleakala MPS 792915
2017 04 25.35456 11 49 07.413 -14 39 52.73 21.1 w F51 – Pan-STARRS 1, Haleakala MPS 792915
2018 05 14.42200 20 56 15.33 -04 47 42.2 20.2 G G96 – Mt. Lemmon Survey MPS 890997
2018 05 14.42720 20 56 15.69 -04 47 38.7 19.9 G G96 – Mt. Lemmon Survey MPS 890997
2018 05 14.43243 20 56 15.94 -04 47 35.7 19.9 G G96 – Mt. Lemmon Survey MPS 890997
2018 05 14.43764 20 56 16.22 -04 47 31.0 20.4 G G96 – Mt. Lemmon Survey MPS 890997
2018 05 16.43376 20 58 01.28 -04 23 23.5   G96 – Mt. Lemmon Survey MPS 890997
2018 05 16.44415 20 58 01.68 -04 23 15.5   G96 – Mt. Lemmon Survey MPS 890997
2018 05 16.45275 20 58 02.08 -04 23 09.7 20.5 G G96 – Mt. Lemmon Survey MPS 890997
2018 06 14.36578 21 13 26.56 +01 17 01.6 20.0 G G96 – Mt. Lemmon Survey MPS 898287
2018 06 14.37059 21 13 26.62 +01 17 04.6 19.7 G G96 – Mt. Lemmon Survey MPS 898287
2018 06 14.37538 21 13 26.65 +01 17 07.8 19.9 G G96 – Mt. Lemmon Survey MPS 898287
2018 06 14.38017 21 13 26.69 +01 17 11.1 19.5 G G96 – Mt. Lemmon Survey MPS 898287
2018 06 20.75855 21 13 59.10 +02 24 51.2 18.9 R D29 – Purple Mountain Observatory, XuYi Station MPS 900332
2018 06 20.77445 21 13 59.11 +02 25 00.8 19.8 R D29 – Purple Mountain Observatory, XuYi Station MPS 900332
2018 06 20.79036 21 13 59.08 +02 25 11.7 19.6 R D29 – Purple Mountain Observatory, XuYi Station MPS 900332
2018 07 05.57433 21 10 53.716 +04 39 24.65 19.9 i F52 – Pan-STARRS 2, Haleakala MPS 904616
2018 07 05.58424 21 10 53.440 +04 39 29.17 19.9 i F52 – Pan-STARRS 2, Haleakala MPS 904616
2018 07 05.59424 21 10 53.164 +04 39 33.97 19.8 i F52 – Pan-STARRS 2, Haleakala MPS 904616
2018 07 12.47071 21 07 27.283 +05 27 12.32 19.9 w F51 – Pan-STARRS 1, Haleakala MPS 907293
2018 07 12.48406 21 07 26.783 +05 27 17.21 19.9 w F51 – Pan-STARRS 1, Haleakala MPS 907293
2018 07 12.49730 21 07 26.282 +05 27 22.08 19.9 w F51 – Pan-STARRS 1, Haleakala MPS 907293
2018 07 12.51073 21 07 25.778 +05 27 27.00 19.9 w F51 – Pan-STARRS 1, Haleakala MPS 907293
2018 07 12.68781 21 07 19.69 +05 28 30.1 19.8 R D29 – Purple Mountain Observatory, XuYi Station MPS 907293
2018 07 12.70195 21 07 19.14 +05 28 35.1 19.8 R D29 – Purple Mountain Observatory, XuYi Station MPS 907293
2018 07 12.71609 21 07 18.61 +05 28 40.5 19.4 R D29 – Purple Mountain Observatory, XuYi Station MPS 907293
2018 07 12.72463 21 07 18.27 +05 28 43.1 18.7 R D29 – Purple Mountain Observatory, XuYi Station MPS 907293
2018 07 12.73788 21 07 17.78 +05 28 48.2 19.5 R D29 – Purple Mountain Observatory, XuYi Station MPS 907293
2018 07 12.73877 21 07 17.76 +05 28 48.3 19.4 R D29 – Purple Mountain Observatory, XuYi Station MPS 907293
2018 07 12.75203 21 07 17.24 +05 28 53.5 19.6 R D29 – Purple Mountain Observatory, XuYi Station MPS 907293
2018 07 12.75291 21 07 17.20 +05 28 54.2 19.9 R D29 – Purple Mountain Observatory, XuYi Station MPS 907293
2018 07 12.76617 21 07 16.74 +05 28 58.4 20.1 R D29 – Purple Mountain Observatory, XuYi Station MPS 907293
2018 09 12.13422 20 26 36.94 +03 27 52.7 20.1 G G96 – Mt. Lemmon Survey MPS 919008
2018 09 12.14116 20 26 36.88 +03 27 49.8 20.2 G G96 – Mt. Lemmon Survey MPS 919008
2018 09 12.14809 20 26 36.83 +03 27 45.9 19.8 G G96 – Mt. Lemmon Survey MPS 919008
2018 11 03.07102 20 59 30.18 -00 51 12.4 20.8 G G96 – Mt. Lemmon Survey MPS 937150
2018 11 03.07672 20 59 30.62 -00 51 13.2 20.5 G G96 – Mt. Lemmon Survey MPS 937150
2018 11 03.08242 20 59 30.99 -00 51 13.9 20.4 G G96 – Mt. Lemmon Survey MPS 937150
2018 11 03.08813 20 59 31.40 -00 51 14.3 20.8 G G96 – Mt. Lemmon Survey MPS 937150
2020 01 26.20136 05 46 02.36 +11 16 31.0 20.8 G G96 – Mt. Lemmon Survey MPS 1144141
2020 01 26.20698 05 46 02.20 +11 16 31.1 20.6 G G96 – Mt. Lemmon Survey MPS 1144141
